Flag for Romania Weather past 2 weeks in Târgu Mureş, Romania

Now
77 °F

Scattered clouds.


Feels Like: 79 °F
Forecast: 57 / 82 °F
Wind: 3 mph from North

Location: Tirgu Mures Airport

Current Time: Jul 4, 2015 at 9:10:17 PM

Latest Report: Jul 4, 2015 at 8:30 PM


Visibility: N/A

Pressure: 30.15 "Hg

Humidity: 57%

Dew point: 61 °F

Location of Târgu MureşLocation

Historic Weather in Târgu Mureş — Graph

°F

Târgu Mureş temperature yesterday

Maximum temperature yesterday: 81 °F (at 3:00 PM)
Minimum temperature yesterday: 52 °F (at 4:00 AM)
Average temperature yesterday: 70 °F

Past Weeks' High & Low Weather Summary

 TemperatureHumidityPressure
High84 °F (Jul 4, 5:30 PM)100% (Jun 20, 3:00 AM)30.33 "Hg (Jun 20, 3:00 AM)
Low45 °F (Jun 22, 5:30 AM)28% (Jun 23, 5:00 PM)29.80 "Hg (Jun 19, 8:00 PM)
Average65 °F74%30.06 "Hg
* Reported Jun 19 8:00 PM — Jul 4 8:00 PM, Târgu Mureş, Weather by CustomWeather, © 2015

Note: Actual official high and low records may vary slightly from our data, if they occured in-between our weather recording intervals... More about our weather records

Advertising

Târgu Mureş weather history for previous 24 hours

 ConditionsComfort  
Time TempWeatherWind HumidityBarometerVisibility
8:00 PM
Sat, Jul 4
77 °FScattered clouds.5 mph57%30.15 "HgN/A
7:30 PM81 °FScattered clouds.3 mph48%30.15 "HgN/A
7:00 PM82 °FScattered clouds.1 mph42%30.15 "HgN/A
6:30 PM82 °FScattered clouds.3 mph40%30.18 "HgN/A
6:00 PM81 °FScattered clouds.5 mph45%30.18 "HgN/A
5:30 PM84 °FScattered clouds.1 mph40%30.18 "HgN/A
5:00 PM82 °FScattered clouds.1 mph40%30.18 "HgN/A
4:30 PM81 °FScattered clouds.5 mph45%30.18 "HgN/A
4:00 PM81 °FScattered clouds.2 mph42%30.18 "HgN/A
3:30 PM82 °FScattered clouds.5 mph42%30.21 "HgN/A
3:00 PM81 °FPartly sunny.6 mph42%30.21 "HgN/A
2:30 PM79 °FScattered clouds.6 mph51%30.21 "HgN/A
2:00 PM82 °FScattered clouds.6 mph45%30.21 "HgN/A
1:30 PM81 °FScattered clouds.3 mph45%30.24 "HgN/A
1:00 PM81 °FScattered clouds.2 mph45%30.24 "HgN/A
12:30 PM79 °FScattered clouds.2 mph51%30.24 "HgN/A
12:00 PM79 °FPassing clouds.2 mph51%30.27 "HgN/A
11:30 AM77 °FPassing clouds.3 mph57%30.27 "HgN/A
11:00 AM77 °FPassing clouds.2 mph57%30.27 "HgN/A
10:30 AM75 °FPassing clouds.3 mph57%30.27 "HgN/A
10:00 AM75 °FSunny.1 mph61%30.30 "Hg10 mi
9:30 AM72 °FClear.No wind69%30.30 "Hg5 mi
9:00 AM70 °FPassing clouds.2 mph73%30.30 "HgN/A
8:30 AM70 °FPassing clouds.No wind73%30.30 "Hg5 mi
8:00 AM66 °FPassing clouds.No wind78%30.30 "Hg5 mi
7:30 AM63 °FFog.2 mph88%30.30 "Hg5 mi
7:00 AM63 °FFog.No wind83%30.33 "Hg4 mi
6:30 AM59 °FFog.1 mph100%30.33 "Hg4 mi
6:00 AM57 °FFog.No wind100%30.30 "Hg5 mi
5:30 AM55 °FClear.No wind100%30.30 "Hg10 mi
5:00 AM57 °FClear.1 mph100%30.30 "Hg10 mi
4:00 AM59 °FClear.No wind100%30.33 "Hg10 mi
3:00 AM59 °FClear.No wind100%30.33 "Hg10 mi
2:00 AM59 °FClear.1 mph88%30.33 "Hg10 mi
1:00 AM59 °FClear.2 mph88%30.33 "Hg10 mi
12:00 AM61 °FClear.No wind88%30.33 "Hg10 mi
11:00 PM
Fri, Jul 3
63 °FClear.5 mph83%30.33 "Hg10 mi
10:00 PM68 °FSunny.No wind69%30.30 "Hg10 mi
9:00 PM72 °FPassing clouds.2 mph61%30.30 "HgN/A
Weather by CustomWeather, © 2015

See weather overviewHow to use our weather pages